EHI
0 0 0 0 0 0 0 0 0 0 0 0 0 0 0 0 0 0 0 0 0 0 0 0 0 0 0 0 0 0 0 0 0 0 0 0 0 0 0 0 0 0 0 0
0 0 0 0 0 0 0 0 0 0 0 0 0 0 0 0 0 0 0 0 0 0 0 0 0 0 0 0 0 0 0 0 0 0 0 0 0 0 0 0 0 0 0 0
0 0 0 0 0 0 0 0 0 0 0 0 0 0 0 0 0 0 0 0 0 0 0 0 0 0 0 0 0 0 0 0 0 0 0 0 0 0 0 0 0 0 0 0
0 0 0 0 0 0 0 0 0 0 0 0 0 0 0 0 0 0 0 0 0 0 0 0 0 0 0 0 0 0 0 0 0 0 0 0 0 0 0 0 0 0 0 0
0 0 0 0 0 0 0 0 0 0 0 0 0 0 0 0 0 0 0 0 0 0 0 0 0 0 0 0 0 0 0 0 0 0 0 0 0 0 0 0 0 0 0 0
0 0 0 0 0 0 0 0 0 0 0 0 0 0 0 0 0 0 0 0 0 0 0 0 0 0 0 0 0 0 0 0 0 0 0 0 0 0 0 0 0 0 0 0
0 0 0 0 0 0 0 0 0 0 0 0 0 0 0 0 0 0 0 0 0 0 0 0 0 0 0 0 0 0 0 0 0 0 0 0 0 0 0 0 0 0 0 0
0 0 0 0 0 0 0 0 0 0 0 0 0 0 0 0 0 0 0 0 0 0 0 0 0 0 0 0 0 0 0 0 0 0 0 0 0 0 0 0 0 0 0 0
0 0 0 0 0 0 0 0 0 0 0 0 0 0 0 0 0 0 0 0 0 0 0 0 0 0 0 0 0 0 0 0 0 0 0 0 0 0 0 0 0 0 0 0
0 0 0 0 0 0 0 0 0 0 0 0 0 0 0 0 0 0 0 0 0 0 0 0 0 0 0 0 0 0 0 0 0 0 0 0 0 0 0 0 0 0 0 0
0 0 0 0 0 0 0 0 0 0 0 0 0 0 0 0 0 0 0 0 0 0 0 0 0 0 0 0 0 0 0 0 0 0 0 0 0 0 0 0 0 0 0 0
0 0 0 0 0 0 0 0 0 0 0 0 0 0 0 0 0 0 0 0 0 0 0 0 0 0 0 0 0 0 0 0 0 0 0 0 0 0 0 0 0 0 0 0
0 0 0 0 0 0 0 0 0 0 0 0 0 0 0 0 0 0 0 0 0 0 0 0 0 0 0 0 0 0 0 0 0 0 0 0 0 0 0 0 0 0 0 0
0 0 0 0 0 0 0 0 0 0 0 0 0 0 0 0 0 0 0 0 0 0 0 0 0 0 0 0 0 0 0 0 0 0 0 0 0 0 0 0 0 0 0 0
0 0 0 0 0 0 0 0 0 0 0 0 0 0 0 0 0 0 0 0 0 0 0 0 0 0 0 0 0 0 0 0 0 0 0 0 0 0 0 0 0 0 0 0
0 0 0 0 0 0 0 0 0 0 0 0 0 0 0 0 0 0 0 0 0 0 0 0 0 0 0 0 0 0 0 0 0 0 0 0 0 0 0 0 0 0 0 0
0 0 0 0 0 0 0 0 0 0 0 0 0 0 0 0 0 0 0 0 0 0 0 0 0 0 0 0 0 0 0 0 0 0 0 0 0 0 0 0 0 0 0 0
0 0 0 0 0 0 0 0 0 0 0 0 0 0 0 0 0 0 0 0 0 0 0 0 0 0 0 0 0 0 0 0 0 0 0 0 0 0 0 0 0 0 0 0
0 0 0 0 0 0 0 0 0 0 0 0 0 0 0 0 0 0 0 0 0 0 0 0 0 0 0 0 0 0 0 0 0 0 0 0 0 0 0 0 0 0 0 0
0 0 0 0 0 0 0 0 0 0 0 0 0 0 0 0 0 0 0 0 0 0 0 0 0 0 0 0 0 0 0 0 0 0 0 0 0 0 0 0 0 0 0 0
0 0 0 0 0 0 0 0 0 0 0 0 0 0 0 0 0 0 0 0 0 0 0 0 0 0 0 0 0 0 0 0 0 0 0 0 0 0 0 0 0 0 0 0
0 0 0 0 0 0 0 0 0 0 0 0 0 0 0 0 0 0 0 0 0 0 0 0 0 0 0 0 0 0 0 0 0 0 0 0 0 0 0 0 0 0 0 0
0 0 0 0 0 0 0 0 0 0 0 0 0 0 0 0 0 0 0 0 0 0 0 0 0 0 0 0 0 0 0 0 0 0 0 0 0 0 0 0 0 0 0 0
0 0 0 0 0 0 0 0 0 0 0 0 0 0 0 0 0 0 0 0 0 0 0 0 0 0 0 0 0 0 0 0 0 0 0 0 0 0 0 0 0 0 0 0
0 0 0 0 0 0 0 0 0 0 0 0 0 0 0 0 0 0 0 0 0 0 0 0 0 0 0 0 0 0 0 0 0 0 0 0 0 0 0 0 0 0 0 0
0 0 0 0 0 0 0 0 0 0 0 0 0 0 0 0 0 0 0 0 0 0 0 0 0 0 0 0 0 0 0 0 0 0 0 0 0 0 0 0 0 0 0 0
Wind_Speed
1 3 3 6 7 4 3 3 4 4 2 2 6 9 8 5 5 6 5 5 5 6 4 4 5 4 4 3 4 4 4 3 3 2 2 2 1 1 1 1 1 1 1 1
3 3 5 2 2 3 3 4 4 4 1 2 4 9 7 5 6 6 6 6 6 4 2 2 3 4 5 5 4 4 4 3 3 2 2 1 1 1 1 1 1 1 1 1
5 3 2 2 1 3 4 6 5 4 4 2 2 7 4 3 2 3 4 5 5 6 6 4 4 4 4 5 5 4 4 3 3 3 2 2 1 1 0 0 1 1 1 1
2 2 0 1 2 3 6 3 3 3 2 4 1 5 6 3 3 4 4 3 4 4 5 5 4 4 5 5 4 4 4 3 3 4 3 4 3 2 2 1 1 1 1 1
2 1 1 3 4 3 4 2 3 3 3 3 2 3 8 2 4 5 4 3 3 3 4 5 5 5 4 4 4 4 4 3 3 3 4 4 3 2 1 1 1 1 1 2
2 1 1 2 2 2 1 1 2 2 2 5 6 5 8 3 5 3 3 3 3 2 3 3 2 2 2 2 2 3 4 3 4 4 4 4 4 4 3 2 3 2 1 2
3 2 1 1 1 1 2 3 2 3 1 6 3 5 8 4 3 3 3 3 3 2 2 2 2 2 2 2 3 3 4 3 3 4 4 4 4 5 5 4 4 3 2 2
1 4 2 1 2 3 3 5 5 5 5 4 1 6 6 2 2 1 1 1 1 1 1 2 2 2 2 3 3 3 4 3 3 4 4 3 3 3 3 4 3 4 3 3
3 4 2 1 1 2 2 3 3 3 1 3 5 5 6 2 3 3 2 2 1 2 2 1 1 1 2 2 3 3 3 3 3 3 3 3 3 3 3 3 3 3 3 2
3 3 3 3 2 1 1 3 3 3 3 5 5 4 4 3 4 4 3 2 2 2 2 1 1 1 1 1 1 1 2 3 3 2 3 2 3 4 3 3 4 4 3 3
2 2 3 2 2 3 1 1 2 3 3 4 4 6 3 4 3 3 4 3 3 2 2 2 1 1 1 1 0 0 1 1 1 2 2 2 3 3 3 3 4 4 3 3
1 2 2 4 2 1 2 3 4 4 4 3 3 7 3 1 2 2 3 4 3 2 2 2 2 2 2 1 1 1 1 1 2 1 1 2 2 2 3 3 4 3 3 3
2 3 2 5 3 3 1 1 1 2 1 3 4 8 3 3 4 3 3 4 3 3 3 3 2 2 2 2 2 2 2 2 2 1 1 2 2 2 3 3 3 3 3 3
3 3 5 6 5 3 3 3 2 3 3 5 7 9 7 6 6 5 4 4 4 3 3 2 2 2 2 2 2 2 2 2 2 1 1 2 2 3 3 3 3 3 2 3
3 2 3 4 4 3 4 5 4 6 7 7 8 8 10 8 6 5 3 3 4 4 4 3 3 3 3 2 2 2 3 3 2 1 2 3 3 2 2 2 2 2 2 3
1 2 1 3 3 3 6 6 6 6 6 7 8 11 9 7 4 3 4 4 4 5 5 4 4 3 3 3 3 2 3 3 2 2 2 3 2 2 2 2 2 1 2 2
2 2 1 4 3 3 6 5 6 4 4 5 8 9 6 5 6 4 4 4 4 5 5 5 4 4 4 3 3 2 2 2 2 2 3 3 2 2 2 1 1 1 1 1
4 3 2 1 2 6 6 2 4 4 4 4 5 6 5 5 6 5 4 3 5 6 5 5 4 4 3 2 2 2 1 1 2 2 2 2 2 2 2 2 1 1 1 1
4 4 2 2 3 7 5 2 2 4 5 2 4 6 6 4 3 3 2 3 5 6 5 5 4 3 2 1 1 1 1 1 2 2 2 2 2 2 2 2 2 2 1 2
2 2 3 3 3 6 5 2 1 2 4 2 2 4 4 3 3 4 4 5 6 6 4 4 3 2 1 2 1 1 1 1 2 3 3 2 2 2 2 2 2 2 2 2
1 0 3 4 5 8 5 2 2 3 5 3 2 2 2 2 5 6 6 6 5 5 5 4 3 2 2 2 1 1 1 2 3 3 3 2 2 2 2 2 2 2 2 2
5 4 4 4 4 8 1 3 3 4 2 2 3 3 3 5 6 5 5 6 6 6 5 4 3 3 2 1 1 1 3 3 3 2 2 3 2 2 2 2 2 2 1 2
5 6 5 7 6 3 1 3 3 1 3 4 4 5 4 5 5 6 5 5 5 5 5 4 3 3 3 2 1 2 3 2 2 2 2 3 3 2 2 2 2 2 1 1
3 0 2 4 5 4 3 3 3 3 4 5 4 5 4 5 6 6 6 5 5 5 4 3 3 2 3 3 2 2 2 2 1 2 2 2 2 2 2 2 2 2 2 2
3 2 2 5 6 5 4 3 4 4 4 4 4 4 4 5 6 6 5 5 5 5 4 3 3 3 4 3 2 2 2 1 1 2 2 2 2 2 2 2 2 3 3 3
2 3 4 5 4 4 6 4 4 4 4 5 5 5 4 4 5 5 5 5 4 5 4 4 4 3 3 3 3 2 2 1 1 2 2 2 2 2 2 2 3 4 4 6
Wind_Direction
73 86 202 214 210 206 182 200 242 250 222 189 230 253 263 243 230 235 234 224 222 226 224 190 184 180 169 169 170 168 164 160 149 156 159 167 185 185 169 155 152 153 132 126
58 248 242 230 214 213 218 240 259 284 296 218 250 265 260 235 220 218 222 222 219 221 218 197 183 178 180 183 185 183 181 176 175 178 177 181 171 202 197 184 181 184 151 154
180 236 238 182 193 218 237 225 239 262 325 316 307 295 260 259 223 229 227 221 213 201 199 198 194 195 190 190 191 193 193 186 180 158 131 113 86 52 74 224 213 230 188 176
220 280 219 150 212 204 244 236 242 246 271 275 191 280 278 254 269 247 244 238 225 209 197 195 193 197 204 207 198 191 183 181 179 162 158 165 176 194 218 213 228 235 201 191
253 249 171 209 231 206 231 248 230 231 207 275 253 232 281 274 256 256 249 243 231 213 199 199 200 203 208 205 197 191 175 176 177 176 175 183 191 197 193 193 205 223 230 213
239 271 220 234 266 226 236 25 44 61 100 258 228 199 272 238 231 260 261 245 236 226 209 201 198 191 204 197 191 186 176 183 182 182 180 187 198 191 188 202 211 221 233 233
320 307 317 332 351 348 70 97 23 338 283 248 203 200 252 259 243 228 238 244 236 221 201 195 190 196 207 201 195 192 186 192 190 189 195 198 205 196 198 203 209 214 221 232
275 288 272 280 203 210 205 163 177 215 237 277 260 228 251 267 294 290 277 263 255 245 217 209 214 209 212 211 203 197 198 201 198 198 207 210 207 209 214 213 213 219 225 229
198 260 317 350 326 163 163 209 190 158 241 264 261 276 300 337 349 351 346 358 317 282 257 235 230 219 220 215 212 208 206 212 212 210 208 212 212 218 226 219 214 220 231 233
166 255 292 314 2 357 167 153 121 158 207 251 273 259 252 283 298 316 323 299 290 308 315 323 319 282 253 233 230 217 212 222 223 213 213 229 229 225 223 218 219 221 227 224
119 174 300 333 206 215 153 161 169 171 186 195 253 264 238 226 247 269 288 301 305 306 309 314 312 314 343 16 17 317 257 247 244 235 231 232 240 238 230 231 228 224 223 218
132 126 257 263 259 270 198 197 170 184 231 205 220 265 297 285 309 305 303 314 318 315 320 326 333 1 7 2 349 326 308 284 273 262 254 248 246 239 234 244 242 227 225 226
129 110 8 333 332 354 324 281 215 173 166 193 212 261 314 351 340 329 317 312 313 321 329 335 343 341 333 332 328 320 315 305 309 301 282 275 263 242 235 241 244 233 227 230
107 153 189 217 235 224 256 267 223 174 210 233 232 257 291 303 306 312 310 300 296 299 307 314 315 311 312 313 311 313 316 320 320 314 295 277 268 257 248 244 239 234 228 229
107 207 229 250 259 224 239 250 221 210 218 229 251 254 271 278 281 286 289 298 300 301 305 299 294 295 302 306 308 311 314 323 322 321 305 282 278 276 264 250 243 237 237 241
93 191 205 273 251 262 275 268 238 237 240 244 265 273 273 283 290 294 290 294 293 290 293 295 294 291 289 286 291 300 308 313 318 313 303 306 309 303 283 263 245 239 243 252
180 167 189 261 287 326 277 240 211 218 221 211 240 261 290 307 309 299 291 296 291 295 291 287 285 275 274 272 273 275 289 307 319 319 315 316 315 309 304 304 315 279 266 271
174 169 186 243 20 248 247 192 192 206 239 231 252 278 288 284 290 288 287 283 299 306 301 290 283 283 282 277 283 284 304 313 315 311 314 320 325 325 325 330 321 304 285 262
190 175 175 174 232 270 288 245 177 202 266 257 255 282 304 314 322 312 327 322 301 301 295 291 284 278 282 282 278 285 311 318 315 306 307 314 318 316 321 317 308 302 290 285
73 132 163 177 211 244 260 275 264 136 279 278 250 283 310 352 332 291 323 326 316 315 312 311 311 315 301 287 266 267 291 304 298 298 300 306 302 296 295 294 298 297 290 283
84 153 203 210 229 260 266 288 92 162 262 303 277 274 289 261 248 277 308 313 315 319 318 321 323 318 293 283 258 265 278 277 287 304 316 316 309 299 288 288 292 292 293 298
181 183 204 189 220 256 254 113 179 233 297 301 293 289 283 276 282 292 303 312 322 324 323 325 324 316 311 297 250 263 273 284 301 315 318 313 311 305 305 302 298 293 285 291
200 196 197 199 220 255 178 204 234 263 283 288 287 289 286 286 289 299 303 309 314 315 316 317 309 308 313 306 264 258 280 293 300 306 303 303 313 315 303 287 288 296 283 273
260 233 201 259 268 278 272 259 287 286 270 279 279 283 284 281 288 295 298 305 310 310 311 315 311 306 309 309 297 268 280 291 285 286 295 302 309 309 310 301 287 279 271 269
246 190 238 264 284 309 291 283 299 307 305 307 306 297 288 285 289 290 295 300 302 307 309 309 300 292 297 306 302 301 296 282 291 295 299 302 300 296 300 301 289 280 259 257
226 201 205 244 257 251 274 291 304 304 303 304 308 312 307 289 285 290 292 294 297 301 304 307 305 302 299 303 303 304 297 269 265 288 298 297 296 295 297 298 307 305 301 301